QPF
0.01 0.02 0.02 0.04 0.04 0.04 0.04 0.03 0.04 0.04 0.04 0.04 0.05 0.05 0.06 0.07 0.08 0.07 0.06 0.06 0.07 0.06 0.06 0.05 0.04 0.05 0.07 0.07 0.04 0.03 0.02 0.02 0.02 0.03 0.03 0.03 0.02 0.02 0.02 0.02 0.02 0.02 0.02
0.01 0.02 0.02 0.03 0.05 0.06 0.07 0.04 0.04 0.04 0.03 0.04 0.05 0.05 0.06 0.07 0.07 0.06 0.06 0.06 0.07 0.06 0.06 0.05 0.05 0.05 0.05 0.07 0.05 0.03 0.03 0.02 0.02 0.02 0.02 0.03 0.03 0.03 0.02 0.02 0.02 0.02 0.02
0.01 0.01 0.04 0.06 0.05 0.05 0.04 0.04 0.04 0.03 0.03 0.05 0.05 0.06 0.08 0.07 0.15 0.16 0.13 0.09 0.07 0.09 0.08 0.07 0.06 0.05 0.05 0.06 0.06 0.04 0.03 0.02 0.02 0.02 0.02 0.03 0.03 0.03 0.02 0.02 0.02 0.03 0.02
0.02 0.02 0.04 0.09 0.06 0.05 0.04 0.05 0.04 0.04 0.04 0.05 0.06 0.08 0.08 0.10 0.14 0.17 0.15 0.13 0.08 0.08 0.09 0.06 0.05 0.04 0.05 0.06 0.06 0.05 0.04 0.03 0.02 0.02 0.02 0.03 0.03 0.03 0.03 0.03 0.02 0.02 0.02
0.02 0.04 0.03 0.07 0.05 0.03 0.03 0.05 0.05 0.04 0.05 0.05 0.06 0.08 0.05 0.07 0.12 0.09 0.09 0.10 0.08 0.07 0.08 0.06 0.03 0.03 0.04 0.05 0.05 0.05 0.04 0.03 0.03 0.02 0.02 0.03 0.03 0.03 0.03 0.03 0.03 0.02 0.02
0.02 0.05 0.07 0.06 0.05 0.03 0.03 0.04 0.05 0.06 0.06 0.06 0.07 0.07 0.05 0.04 0.06 0.08 0.06 0.07 0.07 0.07 0.07 0.06 0.04 0.03 0.04 0.04 0.04 0.05 0.05 0.05 0.04 0.03 0.03 0.03 0.03 0.04 0.04 0.03 0.03 0.02 0.02
0.03 0.02 0.04 0.04 0.04 0.03 0.03 0.04 0.04 0.05 0.07 0.07 0.07 0.06 0.04 0.04 0.04 0.05 0.06 0.08 0.07 0.06 0.08 0.07 0.06 0.05 0.04 0.04 0.04 0.05 0.05 0.04 0.04 0.04 0.04 0.04 0.04 0.04 0.05 0.05 0.04 0.03 0.02
0.02 0.02 0.03 0.03 0.03 0.03 0.02 0.03 0.03 0.03 0.04 0.05 0.05 0.05 0.04 0.03 0.04 0.03 0.04 0.05 0.06 0.05 0.07 0.07 0.05 0.05 0.05 0.04 0.03 0.04 0.05 0.05 0.05 0.05 0.06 0.05 0.04 0.04 0.04 0.05 0.05 0.04 0.03
0.02 0.03 0.06 0.07 0.06 0.05 0.04 0.04 0.04 0.04 0.03 0.04 0.03 0.04 0.03 0.02 0.03 0.03 0.02 0.03 0.05 0.05 0.05 0.07 0.05 0.08 0.10 0.08 0.05 0.04 0.03 0.03 0.05 0.06 0.06 0.06 0.05 0.04 0.04 0.05 0.06 0.06 0.05
0.04 0.05 0.07 0.09 0.08 0.07 0.05 0.03 0.02 0.03 0.04 0.04 0.03 0.03 0.03 0.02 0.03 0.03 0.02 0.03 0.04 0.04 0.04 0.05 0.05 0.08 0.11 0.08 0.06 0.05 0.03 0.03 0.04 0.04 0.05 0.05 0.04 0.04 0.04 0.04 0.05 0.05 0.06
0.04 0.05 0.07 0.07 0.07 0.06 0.04 0.03 0.03 0.03 0.02 0.03 0.04 0.05 0.04 0.04 0.04 0.03 0.04 0.03 0.04 0.05 0.05 0.05 0.06 0.07 0.06 0.05 0.03 0.02 0.02 0.02 0.02 0.03 0.03 0.03 0.03 0.03 0.03 0.03 0.04 0.05 0.05
0.05 0.05 0.06 0.05 0.05 0.05 0.05 0.04 0.04 0.04 0.04 0.03 0.04 0.04 0.05 0.05 0.04 0.04 0.02 0.02 0.03 0.04 0.05 0.06 0.07 0.06 0.04 0.04 0.03 0.02 0.02 0.02 0.02 0.02 0.02 0.01 0.01 0.02 0.02 0.02 0.03 0.03 0.04
0.04 0.04 0.03 0.02 0.03 0.05 0.06 0.07 0.08 0.07 0.06 0.05 0.04 0.03 0.03 0.04 0.04 0.04 0.03 0.02 0.02 0.03 0.04 0.05 0.05 0.07 0.05 0.04 0.03 0.01 0.01 0.01 0.02 0.02 0.03 0.02 0.01 0.01 0.01 0.02 0.02 0.02 0.02
0.03 0.03 0.03 0.02 0.03 0.03 0.04 0.05 0.06 0.07 0.05 0.04 0.03 0.02 0.02 0.02 0.02 0.04 0.03 0.02 0.03 0.03 0.04 0.03 0.03 0.04 0.03 0.04 0.03 0.01 0.01 0.02 0.02 0.03 0.03 0.02 0.02 0.01 0.01 0.02 0.02 0.01 0.01
0.03 0.04 0.03 0.03 0.03 0.03 0.03 0.04 0.04 0.04 0.04 0.04 0.03 0.03 0.02 0.02 0.02 0.02 0.03 0.03 0.02 0.02 0.02 0.02 0.02 0.02 0.02 0.03 0.03 0.02 0.01 0.02 0.02 0.02 0.02 0.03 0.02 0.02 0.02 0.03 0.03 0.02 0.01
0.03 0.03 0.03 0.03 0.04 0.04 0.04 0.05 0.04 0.03 0.03 0.03 0.04 0.04 0.03 0.02 0.02 0.02 0.02 0.03 0.03 0.02 0.01 0.02 0.02 0.02 0.02 0.02 0.02 0.02 0.01 0.01 0.02 0.02 0.03 0.02 0.01 0.01 0.01 0.01 0.01 0.02 0.02
0.05 0.04 0.04 0.04 0.05 0.05 0.05 0.05 0.03 0.03 0.03 0.03 0.02 0.02 0.02 0.02 0.02 0.02 0.02 0.02 0.03 0.03 0.02 0.02 0.02 0.03 0.03 0.02 0.02 0.02 0.02 0.02 0.02 0.02 0.02 0.01 0.01 0.01 0.00 0.00 0.00 0.00 0.01
0.05 0.04 0.05 0.05 0.04 0.04 0.04 0.04 0.04 0.03 0.04 0.03 0.02 0.02 0.02 0.02 0.02 0.02 0.02 0.02 0.03 0.02 0.02 0.02 0.02 0.03 0.03 0.03 0.03 0.02 0.02 0.02 0.01 0.01 0.01 0.01 0.01 0.00 0.00 0.00 0.00 0.00 0.00
0.06 0.06 0.06 0.05 0.05 0.04 0.04 0.04 0.04 0.04 0.05 0.05 0.04 0.04 0.04 0.04 0.04 0.03 0.03 0.02 0.02 0.03 0.03 0.03 0.02 0.02 0.02 0.03 0.04 0.03 0.02 0.01 0.01 0.00 0.01 0.01 0.00 0.00 0.00 0.00 0.00 0.00 0.00
0.06 0.05 0.06 0.06 0.05 0.04 0.04 0.04 0.04 0.04 0.04 0.04 0.04 0.05 0.05 0.05 0.04 0.04 0.03 0.03 0.02 0.03 0.04 0.04 0.03 0.01 0.02 0.03 0.03 0.02 0.02 0.01 0.01 0.01 0.01 0.01 0.01 0.00 0.00 0.00 0.00 0.00 0.00
0.05 0.05 0.06 0.06 0.05 0.04 0.04 0.04 0.05 0.04 0.04 0.04 0.04 0.04 0.03 0.04 0.04 0.05 0.04 0.04 0.04 0.03 0.03 0.04 0.03 0.02 0.02 0.02 0.02 0.01 0.02 0.01 0.01 0.01 0.01 0.01 0.01 0.01 0.00 0.00 0.01 0.01 0.01
0.03 0.03 0.04 0.05 0.04 0.04 0.04 0.04 0.04 0.04 0.05 0.05 0.06 0.05 0.05 0.04 0.04 0.04 0.05 0.05 0.04 0.04 0.04 0.04 0.04 0.03 0.03 0.03 0.02 0.02 0.01 0.01 0.01 0.01 0.01 0.01 0.01 0.01 0.00 0.00 0.00 0.01 0.01
0.04 0.03 0.04 0.04 0.03 0.03 0.03 0.04 0.03 0.02 0.02 0.03 0.04 0.04 0.05 0.06 0.06 0.06 0.06 0.07 0.07 0.06 0.06 0.05 0.05 0.04 0.04 0.03 0.03 0.03 0.02 0.01 0.01 0.01 0.01 0.01 0.01 0.01 0.01 0.01 0.01 0.01 0.01
0.03 0.03 0.03 0.03 0.03 0.02 0.02 0.04 0.03 0.01 0.01 0.01 0.02 0.02 0.02 0.03 0.04 0.05 0.05 0.05 0.05 0.06 0.06 0.07 0.06 0.05 0.04 0.04 0.04 0.03 0.03 0.03 0.02 0.01 0.01 0.01 0.01 0.01 0.01 0.01 0.01 0.01 0.02
0.02 0.02 0.01 0.01 0.02 0.01 0.02 0.03 0.02 0.01 0.01 0.01 0.02 0.02 0.03 0.03 0.05 0.07 0.09 0.09 0.07 0.06 0.06 0.07 0.07 0.06 0.06 0.05 0.04 0.05 0.05 0.04 0.03 0.02 0.01 0.01 0.01 0.01 0.01 0.01 0.02 0.02 0.02
0.01 0.01 0.01 0.01 0.02 0.01 0.02 0.02 0.02 0.00 0.01 0.01 0.01 0.02 0.02 0.02 0.02 0.03 0.04 0.04 0.04 0.04 0.04 0.05 0.05 0.05 0.05 0.04 0.04 0.04 0.04 0.04 0.04 0.02 0.01 0.01 0.01 0.02 0.02 0.01 0.02 0.02 0.03
MSLP
1017.43 1017.57 1017.61 1017.61 1017.62 1017.70 1017.87 1018.14 1018.47 1018.83 1019.14 1019.37 1019.50 1019.52 1019.46 1019.36 1019.27 1019.21 1019.21 1019.28 1019.41 1019.57 1019.74 1019.91 1020.06 1020.18 1020.28 1020.37 1020.44 1020.51 1020.56 1020.61 1020.64 1020.66 1020.67 1020.67 1020.66 1020.65 1020.63 1020.61 1020.58 1020.54 1020.51
1017.29 1017.46 1017.53 1017.55 1017.60 1017.70 1017.89 1018.17 1018.51 1018.86 1019.19 1019.44 1019.58 1019.62 1019.56 1019.46 1019.34 1019.24 1019.20 1019.23 1019.32 1019.47 1019.65 1019.85 1020.03 1020.19 1020.32 1020.41 1020.48 1020.51 1020.53 1020.53 1020.53 1020.53 1020.54 1020.57 1020.61 1020.67 1020.72 1020.77 1020.80 1020.82 1020.83
1016.99 1017.18 1017.29 1017.38 1017.48 1017.63 1017.85 1018.15 1018.50 1018.86 1019.19 1019.45 1019.60 1019.65 1019.61 1019.51 1019.38 1019.26 1019.18 1019.17 1019.22 1019.34 1019.51 1019.71 1019.92 1020.10 1020.26 1020.38 1020.44 1020.47 1020.47 1020.45 1020.42 1020.42 1020.45 1020.51 1020.60 1020.72 1020.85 1020.98 1021.08 1021.16 1021.21
1016.56 1016.78 1016.95 1017.11 1017.28 1017.50 1017.78 1018.10 1018.46 1018.82 1019.14 1019.39 1019.56 1019.62 1019.60 1019.51 1019.38 1019.25 1019.15 1019.10 1019.11 1019.20 1019.34 1019.53 1019.73 1019.94 1020.12 1020.26 1020.35 1020.39 1020.39 1020.38 1020.36 1020.37 1020.41 1020.51 1020.66 1020.84 1021.03 1021.23 1021.39 1021.53 1021.62
1016.09 1016.32 1016.55 1016.78 1017.05 1017.34 1017.66 1018.01 1018.37 1018.72 1019.03 1019.27 1019.44 1019.53 1019.53 1019.47 1019.37 1019.24 1019.13 1019.05 1019.03 1019.06 1019.16 1019.32 1019.51 1019.72 1019.92 1020.09 1020.22 1020.29 1020.33 1020.34 1020.36 1020.39 1020.47 1020.60 1020.79 1021.02 1021.27 1021.51 1021.73 1021.90 1022.03
1015.64 1015.88 1016.15 1016.45 1016.79 1017.15 1017.52 1017.89 1018.24 1018.57 1018.86 1019.09 1019.26 1019.37 1019.42 1019.40 1019.34 1019.25 1019.14 1019.05 1018.99 1018.97 1019.02 1019.13 1019.29 1019.49 1019.70 1019.90 1020.07 1020.20 1020.29 1020.36 1020.42 1020.50 1020.61 1020.78 1021.00 1021.26 1021.54 1021.81 1022.06 1022.26 1022.40
1015.29 1015.50 1015.79 1016.14 1016.53 1016.94 1017.34 1017.72 1018.07 1018.37 1018.63 1018.85 1019.04 1019.18 1019.28 1019.33 1019.33 1019.28 1019.20 1019.10 1019.01 1018.95 1018.94 1018.99 1019.11 1019.28 1019.49 1019.71 1019.93 1020.12 1020.28 1020.41 1020.54 1020.67 1020.83 1021.02 1021.26 1021.53 1021.82 1022.10 1022.35 1022.56 1022.71
1015.06 1015.23 1015.51 1015.88 1016.29 1016.72 1017.13 1017.50 1017.83 1018.11 1018.35 1018.57 1018.77 1018.95 1019.12 1019.24 1019.32 1019.34 1019.30 1019.22 1019.11 1019.00 1018.93 1018.91 1018.97 1019.11 1019.30 1019.54 1019.80 1020.05 1020.28 1020.49 1020.68 1020.86 1021.06 1021.28 1021.53 1021.81 1022.09 1022.36 1022.61 1022.81 1022.96
1014.96 1015.07 1015.32 1015.66 1016.06 1016.48 1016.88 1017.23 1017.53 1017.79 1018.02 1018.24 1018.47 1018.70 1018.94 1019.15 1019.31 1019.40 1019.42 1019.35 1019.24 1019.10 1018.97 1018.89 1018.89 1018.98 1019.15 1019.39 1019.67 1019.97 1020.27 1020.54 1020.80 1021.05 1021.28 1021.53 1021.78 1022.05 1022.31 1022.57 1022.80 1022.99 1023.13
1014.96 1015.00 1015.18 1015.47 1015.83 1016.22 1016.58 1016.90 1017.17 1017.40 1017.63 1017.86 1018.12 1018.41 1018.71 1019.01 1019.25 1019.42 1019.49 1019.46 1019.35 1019.19 1019.02 1018.89 1018.83 1018.87 1019.01 1019.24 1019.54 1019.87 1020.22 1020.56 1020.87 1021.17 1021.44 1021.71 1021.97 1022.23 1022.48 1022.72 1022.93 1023.11 1023.25
1015.01 1014.97 1015.08 1015.30 1015.59 1015.91 1016.23 1016.50 1016.74 1016.96 1017.18 1017.42 1017.71 1018.05 1018.42 1018.79 1019.11 1019.35 1019.47 1019.48 1019.39 1019.22 1019.03 1018.87 1018.77 1018.77 1018.88 1019.10 1019.40 1019.75 1020.13 1020.51 1020.87 1021.21 1021.52 1021.81 1022.09 1022.35 1022.59 1022.82 1023.02 1023.19 1023.33
1015.04 1014.94 1014.97 1015.11 1015.33 1015.58 1015.82 1016.05 1016.26 1016.46 1016.67 1016.93 1017.25 1017.62 1018.04 1018.46 1018.84 1019.14 1019.32 1019.37 1019.31 1019.17 1018.98 1018.80 1018.69 1018.67 1018.76 1018.96 1019.25 1019.61 1020.01 1020.42 1020.81 1021.18 1021.53 1021.84 1022.14 1022.41 1022.66 1022.88 1023.08 1023.26 1023.40
1015.01 1014.87 1014.83 1014.89 1015.03 1015.20 1015.38 1015.56 1015.73 1015.91 1016.12 1016.39 1016.72 1017.12 1017.56 1018.02 1018.44 1018.78 1019.00 1019.11 1019.10 1018.99 1018.84 1018.69 1018.59 1018.57 1018.65 1018.84 1019.13 1019.49 1019.89 1020.31 1020.73 1021.13 1021.50 1021.84 1022.15 1022.43 1022.70 1022.93 1023.14 1023.33 1023.48
1014.89 1014.72 1014.64 1014.63 1014.70 1014.80 1014.92 1015.05 1015.19 1015.35 1015.56 1015.82 1016.15 1016.55 1017.00 1017.46 1017.90 1018.27 1018.54 1018.70 1018.74 1018.71 1018.62 1018.53 1018.47 1018.48 1018.59 1018.78 1019.07 1019.42 1019.83 1020.25 1020.67 1021.08 1021.47 1021.83 1022.16 1022.46 1022.74 1022.99 1023.21 1023.41 1023.58
1014.67 1014.50 1014.39 1014.34 1014.34 1014.39 1014.46 1014.55 1014.66 1014.80 1014.99 1015.24 1015.56 1015.94 1016.37 1016.83 1017.26 1017.65 1017.95 1018.16 1018.29 1018.34 1018.34 1018.33 1018.35 1018.43 1018.57 1018.80 1019.09 1019.45 1019.84 1020.26 1020.68 1021.09 1021.49 1021.86 1022.20 1022.51 1022.80 1023.06 1023.29 1023.49 1023.67
1014.37 1014.21 1014.09 1014.01 1013.97 1013.98 1014.01 1014.07 1014.15 1014.28 1014.45 1014.68 1014.97 1015.32 1015.72 1016.15 1016.57 1016.96 1017.29 1017.56 1017.76 1017.91 1018.02 1018.12 1018.24 1018.40 1018.61 1018.88 1019.20 1019.56 1019.95 1020.37 1020.78 1021.19 1021.58 1021.95 1022.29 1022.60 1022.88 1023.14 1023.37 1023.57 1023.75
1013.99 1013.86 1013.74 1013.65 1013.59 1013.56 1013.57 1013.61 1013.68 1013.78 1013.93 1014.14 1014.40 1014.71 1015.07 1015.46 1015.86 1016.24 1016.59 1016.91 1017.19 1017.44 1017.66 1017.88 1018.12 1018.37 1018.66 1018.99 1019.35 1019.73 1020.14 1020.55 1020.96 1021.35 1021.73 1022.09 1022.41 1022.71 1022.97 1023.20 1023.42 1023.61 1023.78
1013.55 1013.43 1013.32 1013.23 1013.17 1013.13 1013.13 1013.15 1013.21 1013.30 1013.44 1013.62 1013.85 1014.13 1014.44 1014.79 1015.15 1015.52 1015.89 1016.25 1016.59 1016.93 1017.26 1017.59 1017.94 1018.30 1018.67 1019.07 1019.48 1019.90 1020.32 1020.74 1021.15 1021.54 1021.91 1022.24 1022.54 1022.80 1023.03 1023.23 1023.41 1023.57 1023.73
1013.04 1012.95 1012.85 1012.76 1012.70 1012.66 1012.65 1012.68 1012.73 1012.82 1012.95 1013.11 1013.31 1013.55 1013.83 1014.14 1014.47 1014.82 1015.19 1015.58 1015.97 1016.38 1016.79 1017.22 1017.66 1018.11 1018.57 1019.04 1019.51 1019.97 1020.43 1020.88 1021.30 1021.69 1022.05 1022.36 1022.62 1022.85 1023.03 1023.18 1023.32 1023.45 1023.58
1012.48 1012.38 1012.29 1012.21 1012.15 1012.12 1012.12 1012.15 1012.21 1012.30 1012.42 1012.58 1012.76 1012.98 1013.22 1013.50 1013.80 1014.14 1014.50 1014.90 1015.32 1015.76 1016.24 1016.73 1017.24 1017.77 1018.30 1018.83 1019.37 1019.89 1020.39 1020.88 1021.33 1021.73 1022.08 1022.38 1022.62 1022.80 1022.94 1023.04 1023.13 1023.22 1023.33
1011.85 1011.74 1011.65 1011.57 1011.52 1011.50 1011.50 1011.54 1011.62 1011.72 1011.85 1012.01 1012.19 1012.39 1012.62 1012.87 1013.15 1013.47 1013.82 1014.21 1014.63 1015.10 1015.60 1016.13 1016.68 1017.26 1017.84 1018.43 1019.02 1019.60 1020.16 1020.69 1021.18 1021.61 1021.98 1022.27 1022.49 1022.64 1022.74 1022.80 1022.84 1022.90 1022.98
1011.16 1011.04 1010.94 1010.86 1010.81 1010.79 1010.81 1010.87 1010.96 1011.07 1011.22 1011.39 1011.57 1011.78 1012.00 1012.25 1012.52 1012.82 1013.16 1013.53 1013.95 1014.41 1014.91 1015.44 1016.01 1016.61 1017.22 1017.86 1018.49 1019.12 1019.73 1020.31 1020.84 1021.30 1021.70 1022.00 1022.22 1022.35 1022.43 1022.45 1022.47 1022.49 1022.56
1010.45 1010.30 1010.18 1010.10 1010.06 1010.05 1010.08 1010.15 1010.25 1010.39 1010.55 1010.74 1010.94 1011.16 1011.39 1011.64 1011.91 1012.20 1012.53 1012.89 1013.29 1013.73 1014.21 1014.73 1015.29 1015.89 1016.51 1017.16 1017.82 1018.48 1019.14 1019.76 1020.33 1020.83 1021.26 1021.58 1021.81 1021.95 1022.01 1022.03 1022.03 1022.04 1022.09
1009.74 1009.57 1009.44 1009.35 1009.31 1009.30 1009.34 1009.42 1009.54 1009.69 1009.87 1010.08 1010.30 1010.55 1010.80 1011.07 1011.34 1011.65 1011.97 1012.31 1012.70 1013.11 1013.57 1014.06 1014.60 1015.17 1015.79 1016.43 1017.10 1017.78 1018.45 1019.10 1019.70 1020.24 1020.69 1021.04 1021.29 1021.44 1021.51 1021.53 1021.54 1021.55 1021.61
1009.10 1008.91 1008.77 1008.68 1008.63 1008.62 1008.66 1008.74 1008.87 1009.03 1009.23 1009.45 1009.70 1009.97 1010.24 1010.54 1010.84 1011.15 1011.48 1011.83 1012.20 1012.60 1013.04 1013.50 1014.01 1014.55 1015.14 1015.76 1016.41 1017.08 1017.76 1018.41 1019.03 1019.58 1020.04 1020.41 1020.69 1020.86 1020.96 1021.01 1021.03 1021.06 1021.12
1008.56 1008.36 1008.22 1008.11 1008.06 1008.05 1008.08 1008.16 1008.28 1008.44 1008.65 1008.88 1009.15 1009.43 1009.74 1010.06 1010.39 1010.72 1011.07 1011.44 1011.81 1012.21 1012.63 1013.08 1013.55 1014.07 1014.62 1015.21 1015.83 1016.47 1017.12 1017.75 1018.35 1018.90 1019.37 1019.75 1020.05 1020.25 1020.38 1020.46 1020.51 1020.57 1020.65
Thickness
5735 5733 5731 5730 5728 5727 5726 5725 5724 5723 5723 5724 5724 5724 5724 5724 5724 5724 5724 5724 5723 5722 5722 5721 5720 5719 5718 5718 5717 5716 5715 5714 5714 5713 5713 5712 5711 5710 5709 5708 5706 5705 5704
5733 5730 5728 5727 5726 5724 5724 5723 5722 5721 5720 5721 5721 5721 5721 5721 5721 5721 5721 5721 5721 5720 5720 5719 5718 5717 5716 5716 5715 5714 5713 5712 5712 5711 5711 5710 5709 5707 5706 5705 5704 5703 5702
5731 5729 5726 5724 5723 5722 5721 5720 5719 5718 5717 5717 5717 5718 5718 5718 5718 5717 5718 5719 5718 5718 5718 5717 5716 5715 5714 5713 5712 5712 5710 5710 5709 5709 5708 5707 5706 5705 5704 5703 5702 5701 5700
5730 5727 5724 5722 5721 5719 5717 5716 5715 5713 5712 5712 5712 5714 5715 5715 5715 5715 5715 5715 5715 5715 5715 5714 5713 5712 5711 5711 5710 5709 5708 5707 5706 5706 5705 5705 5703 5703 5702 5701 5699 5698 5698
5728 5726 5723 5721 5719 5716 5714 5713 5711 5710 5708 5708 5709 5710 5710 5711 5711 5712 5712 5712 5712 5712 5712 5711 5710 5709 5708 5708 5708 5707 5705 5704 5703 5703 5702 5701 5701 5700 5699 5698 5697 5696 5695
5726 5723 5721 5718 5716 5713 5710 5709 5707 5706 5705 5704 5705 5705 5705 5706 5707 5707 5708 5709 5708 5708 5708 5707 5707 5706 5705 5705 5704 5703 5702 5700 5700 5699 5699 5698 5698 5697 5696 5695 5695 5694 5693
5722 5720 5718 5714 5712 5709 5707 5705 5703 5701 5699 5699 5696 5695 5697 5700 5702 5703 5704 5704 5703 5704 5704 5703 5703 5702 5702 5702 5701 5700 5698 5697 5696 5696 5695 5695 5695 5694 5693 5692 5691 5691 5690
5719 5717 5714 5711 5708 5704 5702 5700 5699 5695 5694 5694 5690 5686 5683 5687 5693 5698 5698 5698 5698 5698 5698 5699 5699 5699 5698 5698 5697 5696 5695 5693 5692 5692 5691 5691 5690 5690 5689 5689 5688 5687 5686
5716 5714 5711 5708 5705 5701 5698 5696 5695 5691 5688 5688 5688 5684 5678 5676 5680 5687 5691 5693 5693 5693 5694 5695 5695 5695 5694 5694 5693 5692 5690 5689 5688 5688 5687 5687 5686 5685 5685 5684 5684 5684 5683
5712 5710 5708 5705 5702 5699 5696 5694 5692 5689 5686 5682 5682 5683 5682 5680 5675 5675 5681 5685 5687 5688 5689 5690 5690 5690 5689 5689 5688 5687 5686 5685 5684 5683 5682 5682 5682 5681 5680 5680 5680 5679 5679
5708 5706 5704 5701 5698 5696 5693 5690 5688 5686 5683 5680 5678 5677 5676 5675 5675 5672 5671 5676 5679 5682 5684 5684 5685 5685 5684 5684 5683 5683 5682 5680 5680 5679 5678 5677 5677 5676 5675 5675 5675 5675 5675
5703 5701 5699 5697 5694 5692 5689 5687 5684 5682 5679 5677 5676 5674 5672 5670 5669 5668 5667 5668 5670 5674 5677 5678 5680 5680 5680 5679 5679 5678 5678 5677 5675 5674 5673 5673 5672 5672 5671 5671 5670 5670 5670
5698 5697 5696 5693 5691 5688 5686 5684 5681 5678 5676 5673 5671 5671 5670 5669 5668 5666 5663 5662 5662 5665 5669 5671 5674 5674 5675 5674 5673 5673 5673 5672 5671 5670 5669 5668 5668 5668 5667 5667 5666 5666 5666
5696 5695 5692 5689 5687 5684 5682 5679 5677 5675 5673 5670 5669 5667 5666 5665 5665 5663 5661 5658 5655 5655 5659 5663 5667 5668 5669 5668 5668 5667 5667 5667 5667 5666 5664 5663 5663 5663 5663 5662 5662 5661 5661
5693 5691 5688 5685 5682 5680 5678 5675 5672 5671 5669 5666 5665 5664 5662 5662 5661 5660 5659 5656 5651 5648 5650 5655 5659 5663 5663 5663 5662 5662 5662 5662 5662 5660 5659 5658 5658 5658 5658 5658 5657 5657 5656
5689 5685 5683 5681 5678 5676 5674 5671 5669 5667 5664 5662 5661 5659 5658 5657 5656 5655 5654 5652 5650 5648 5646 5650 5653 5656 5657 5657 5657 5656 5656 5656 5655 5655 5653 5653 5653 5653 5653 5653 5653 5652 5652
5683 5681 5679 5676 5673 5670 5668 5666 5664 5662 5659 5658 5656 5655 5653 5653 5652 5650 5649 5647 5646 5644 5642 5645 5647 5649 5649 5649 5650 5650 5650 5649 5649 5649 5648 5648 5648 5648 5648 5648 5648 5647 5647
5678 5676 5674 5670 5668 5666 5664 5661 5659 5658 5655 5653 5652 5650 5648 5648 5647 5646 5644 5643 5641 5641 5639 5638 5640 5641 5642 5643 5644 5643 5644 5644 5644 5644 5643 5643 5643 5643 5643 5643 5643 5643 5643
5673 5671 5669 5665 5663 5661 5659 5657 5655 5653 5651 5650 5648 5646 5645 5643 5641 5640 5639 5638 5637 5637 5634 5633 5633 5634 5635 5637 5637 5637 5638 5638 5638 5639 5639 5638 5638 5638 5638 5638 5638 5638 5638
5668 5665 5663 5661 5659 5657 5654 5652 5649 5647 5646 5644 5643 5641 5640 5638 5637 5635 5634 5633 5631 5630 5628 5627 5627 5627 5628 5630 5629 5629 5629 5630 5631 5633 5633 5633 5634 5634 5634 5633 5634 5634 5634
5663 5661 5658 5656 5654 5652 5649 5646 5644 5642 5639 5638 5637 5636 5635 5635 5634 5632 5631 5628 5626 5623 5622 5621 5621 5620 5621 5621 5622 5623 5623 5623 5625 5626 5626 5627 5627 5628 5628 5628 5629 5629 5629
5657 5655 5652 5650 5648 5647 5645 5642 5639 5637 5634 5632 5630 5630 5629 5629 5628 5627 5626 5625 5623 5620 5618 5617 5616 5615 5616 5617 5618 5618 5616 5614 5615 5620 5619 5619 5620 5621 5623 5623 5625 5625 5625
5652 5649 5646 5645 5642 5640 5639 5637 5635 5632 5629 5626 5624 5623 5623 5624 5622 5620 5619 5619 5618 5617 5617 5616 5614 5614 5613 5614 5613 5612 5611 5610 5611 5613 5612 5612 5614 5615 5618 5620 5620 5621 5621
5646 5643 5641 5639 5637 5635 5634 5631 5629 5626 5623 5621 5619 5618 5616 5615 5615 5613 5612 5611 5610 5611 5612 5612 5612 5612 5612 5611 5610 5609 5607 5606 5606 5607 5607 5605 5608 5610 5613 5614 5616 5616 5617
5640 5638 5636 5633 5631 5630 5628 5626 5624 5620 5616 5615 5614 5613 5611 5610 5610 5608 5605 5603 5603 5605 5607 5607 5607 5608 5607 5607 5606 5602 5600 5598 5599 5601 5602 5600 5602 5603 5605 5607 5610 5611 5612
5634 5632 5629 5628 5626 5624 5623 5621 5618 5614 5610 5609 5607 5606 5606 5605 5604 5601 5599 5598 5597 5599 5599 5600 5600 5601 5601 5602 5601 5599 5598 5595 5594 5594 5598 5596 5596 5595 5596 5601 5603 5605 5606